Weather History for KTMK - March, 2013

Change the Weather History Date:

Wednesday, March 20, 2013

  Actual Average (KMMV) Record (KMMV)
Temperature  
Mean Temperature 47 °F 47 °F  
Max Temperature 55 °F 57 °F 78 °F (1915)
Min Temperature 39 °F 38 °F 21 °F (1955)
Degree Days  
Heating Degree Days 18 18  
Month to date heating degree days 384  
Since 1 July heating degree days 3763  
Cooling Degree Days 0 0  
Month to date cooling degree days 0  
Year to date cooling degree days 0  
Moisture  
Dew Point 44 °F    
Average Humidity 81    
Maximum Humidity 94    
Minimum Humidity 61    
Precipitation  
Precipitation 0.45 in 0.15 in 1.12 in (1904)
Month to date precipitation 2.69  
Year to date precipitation 13.23  
Sea Level Pressure  
Sea Level Pressure 29.79 in    
Wind  
Wind Speed 16 mph (SW)    
Max Wind Speed 30 mph    
Max Gust Speed 45 mph    
Visibility 8 miles    
Events Rain    
T = Trace of Precipitation, MM = Missing Value Source: NWS Daily Summary

Daily Weather History Graph

Daily Weather History Graph

Search for Another Location

Airport or City:

Trip Planner

Search our weather history database for the weather conditions in past years. The results will help you decide how hot, cold, wet, or windy it might be!

Date:

Astronomy

Mar. 20, 2013 Rise Set
Actual Time 8:17 AM MDT 8:28 PM MDT
Civil Twilight 7:48 AM MDT 8:57 PM MDT
Nautical Twilight 7:13 AM MDT 9:32 PM MDT
Astronomical Twilight 6:38 AM MDT 10:08 PM MDT
Moon 1:53 PM MDT (3/20) 4:17 AM MDT (3/20)
Length of Visible Light 13h 09m
Length of Day
12h 10m
First Quarter, 60% of the Moon is Illuminated
Mar 20
First Quarter
Mar 27
Full
Apr 2
Last Quarter
Apr 10
New
Apr 18
First Quarter

Hourly Weather History & Observations

Time (MDT) Temp. Windchill Dew Point Humidity Pressure Visibility Wind Dir Wind Speed Gust Speed Precip Events Conditions
12:15 AM 51.8 °F - 50.0 °F 94% 29.63 in 5.0 mi South 9.2 mph - 0.09 in Rain Rain
12:35 AM 53.6 °F - 50.0 °F 88% 29.62 in 10.0 mi South 20.7 mph 26.5 mph 0.10 in   Light Drizzle
12:55 AM 53.6 °F - 50.0 °F 88% 29.62 in 5.0 mi South 20.7 mph 27.6 mph 0.10 in Rain Light Rain
1:15 AM 53.6 °F - 50.0 °F 88% 29.61 in 5.0 mi South 23.0 mph 31.1 mph N/A Rain Light Rain
1:35 AM 53.6 °F - 50.0 °F 88% 29.60 in 7.0 mi South 21.9 mph 36.8 mph N/A Rain Light Rain
1:55 AM 53.6 °F - 50.0 °F 88% 29.60 in 7.0 mi South 19.6 mph 38.0 mph N/A   Overcast
2:15 AM 53.6 °F - 50.0 °F 88% 29.59 in 7.0 mi South 20.7 mph 32.2 mph N/A   Overcast
2:35 AM 55.4 °F - 48.2 °F 77% 29.58 in 10.0 mi South 19.6 mph 32.2 mph N/A Rain Light Rain
2:55 AM 55.4 °F - 50.0 °F 82% 29.57 in 10.0 mi South 16.1 mph 28.8 mph N/A Rain Rain
3:15 AM 55.4 °F - 50.0 °F 82% 29.56 in 10.0 mi South 23.0 mph 32.2 mph N/A   Drizzle
3:35 AM 53.6 °F - 50.0 °F 88% 29.56 in 7.0 mi South 17.3 mph 26.5 mph N/A   Drizzle
3:55 AM 53.6 °F - 50.0 °F 88% 29.55 in 7.0 mi South 19.6 mph 27.6 mph 0.01 in Rain Rain
4:15 AM 53.6 °F - 50.0 °F 88% 29.54 in 5.0 mi South 25.3 mph 36.8 mph 0.04 in Rain Light Rain
4:35 AM 53.6 °F - 50.0 °F 88% 29.54 in 10.0 mi South 29.9 mph 40.3 mph 0.05 in Rain Light Rain
4:55 AM 55.4 °F - 50.0 °F 82% 29.52 in 10.0 mi South 21.9 mph 35.7 mph 0.05 in   Overcast
5:15 AM 55.4 °F - 50.0 °F 82% 29.52 in 10.0 mi South 21.9 mph 34.5 mph N/A   Overcast
5:35 AM 55.4 °F - 50.0 °F 82% 29.52 in 7.0 mi South 19.6 mph 38.0 mph N/A   Overcast
5:55 AM 53.6 °F - 50.0 °F 88% 29.51 in 5.0 mi South 19.6 mph 44.9 mph N/A   Drizzle
6:15 AM 53.6 °F - 50.0 °F 88% 29.51 in 7.0 mi South 18.4 mph 32.2 mph 0.01 in Rain Rain
6:35 AM 53.6 °F - 50.0 °F 88% 29.51 in 4.0 mi South 25.3 mph 32.2 mph 0.04 in Rain Rain
6:55 AM 53.6 °F - 50.0 °F 88% 29.51 in 5.0 mi South 24.2 mph 38.0 mph 0.05 in Rain Light Rain
7:15 AM 53.6 °F - 50.0 °F 88% 29.51 in 3.0 mi South 26.5 mph 36.8 mph N/A Rain Rain
7:35 AM 53.6 °F - 50.0 °F 88% 29.52 in 3.0 mi South 26.5 mph 42.6 mph 0.01 in Rain Light Rain
7:55 AM 50.0 °F - 48.2 °F 94% 29.56 in 4.0 mi SW 16.1 mph 29.9 mph 0.03 in Rain Light Rain
8:15 AM 50.0 °F - 48.2 °F 94% 29.58 in 5.0 mi SSW 13.8 mph 19.6 mph 0.03 in Rain Rain
8:35 AM 50.0 °F - 48.2 °F 94% 29.60 in 2.0 mi WSW 15.0 mph 27.6 mph 0.07 in Rain Rain
8:55 AM 48.2 °F - 46.4 °F 93% 29.62 in 4.0 mi West 18.4 mph 23.0 mph 0.09 in Rain Rain
9:15 AM 48.2 °F - 46.4 °F 93% 29.64 in 10.0 mi WSW 13.8 mph 19.6 mph 0.01 in   Overcast
9:35 AM 48.2 °F - 46.4 °F 93% 29.66 in 7.0 mi SW 16.1 mph 20.7 mph 0.01 in   Overcast
9:55 AM 48.2 °F - 44.6 °F 87% 29.68 in 4.0 mi WSW 9.2 mph - 0.01 in Rain Light Rain
10:15 AM 48.2 °F - 44.6 °F 87% 29.69 in 10.0 mi WSW 15.0 mph 18.4 mph N/A   Overcast
10:35 AM 48.2 °F - 42.8 °F 82% 29.70 in 5.0 mi SW 12.7 mph 26.5 mph 0.02 in   Drizzle
10:55 AM 48.2 °F - 44.6 °F 87% 29.71 in 5.0 mi SW 15.0 mph 24.2 mph 0.02 in   Overcast
11:15 AM 50.0 °F - 44.6 °F 82% 29.71 in 10.0 mi SW 15.0 mph - N/A   Overcast
11:35 AM 50.0 °F - 44.6 °F 82% 29.73 in 7.0 mi SW 19.6 mph 26.5 mph N/A   Overcast
11:55 AM 50.0 °F - 44.6 °F 82% 29.75 in 10.0 mi SW 19.6 mph 26.5 mph N/A   Mostly Cloudy
12:15 PM 50.0 °F - 42.8 °F 76% 29.77 in 10.0 mi WSW 16.1 mph 24.2 mph N/A   Scattered Clouds
12:35 PM 50.0 °F - 42.8 °F 76% 29.78 in 10.0 mi SW 13.8 mph 26.5 mph N/A   Mostly Cloudy
12:55 PM 48.2 °F - 44.6 °F 87% 29.80 in 10.0 mi SW 16.1 mph 24.2 mph N/A   Overcast
1:15 PM 46.4 °F 40.1 °F 42.8 °F 87% 29.81 in 4.0 mi SW 15.0 mph 27.6 mph 0.01 in Rain Light Rain
1:35 PM 50.0 °F - 44.6 °F 82% 29.82 in 10.0 mi WSW 16.1 mph 25.3 mph 0.01 in   Mostly Cloudy
1:55 PM 46.4 °F 41.5 °F 41.0 °F 81% 29.85 in 10.0 mi SW 10.4 mph 23.0 mph 0.04 in Rain Light Rain
2:15 PM 48.2 °F - 44.6 °F 87% 29.86 in 4.0 mi WSW 11.5 mph 16.1 mph 0.01 in Rain Rain
2:35 PM 48.2 °F - 42.8 °F 82% 29.87 in 10.0 mi SW 11.5 mph - 0.02 in   Mostly Cloudy
2:55 PM 46.4 °F 41.9 °F 42.8 °F 87% 29.88 in 10.0 mi WSW 9.2 mph 21.9 mph 0.02 in Rain Light Rain
3:15 PM 46.4 °F 40.7 °F 42.8 °F 87% 29.89 in 5.0 mi West 12.7 mph 18.4 mph 0.01 in Rain Light Rain
3:35 PM 48.2 °F - 42.8 °F 82% 29.91 in 7.0 mi West 13.8 mph 19.6 mph 0.01 in Rain Light Rain
3:55 PM 50.0 °F - 42.8 °F 76% 29.92 in 10.0 mi WSW 10.4 mph - 0.01 in   Overcast
4:15 PM 50.0 °F - 42.8 °F 76% 29.93 in 10.0 mi West 13.8 mph 20.7 mph N/A   Overcast
4:35 PM 46.4 °F 40.7 °F 41.0 °F 81% 29.95 in 10.0 mi WSW 12.7 mph 20.7 mph 0.02 in   Overcast
4:55 PM 46.4 °F 40.1 °F 41.0 °F 81% 29.96 in 7.0 mi West 15.0 mph 20.7 mph 0.02 in   Overcast
5:15 PM 48.2 °F - 41.0 °F 76% 29.98 in 10.0 mi West 15.0 mph 19.6 mph N/A   Overcast
5:35 PM 48.2 °F - 39.2 °F 71% 29.99 in 10.0 mi West 16.1 mph 26.5 mph N/A   Overcast
5:55 PM 48.2 °F - 39.2 °F 71% 29.99 in 10.0 mi WSW 9.2 mph 18.4 mph N/A   Overcast
6:15 PM 48.2 °F - 39.2 °F 71% 30.00 in 7.0 mi West 12.7 mph 17.3 mph N/A   Overcast
6:35 PM 48.2 °F - 37.4 °F 66% 30.01 in 10.0 mi West 5.8 mph - N/A   Overcast
6:55 PM 48.2 °F - 35.6 °F 62% 30.02 in 10.0 mi West 9.2 mph 19.6 mph N/A   Overcast
7:15 PM 48.2 °F - 35.6 °F 62% 30.03 in 10.0 mi West 11.5 mph 17.3 mph N/A   Overcast
7:35 PM 46.4 °F 41.5 °F 35.6 °F 66% 30.04 in 10.0 mi West 10.4 mph 21.9 mph N/A   Overcast
7:55 PM 46.4 °F 40.1 °F 33.8 °F 62% 30.05 in 10.0 mi West 15.0 mph 19.6 mph N/A   Mostly Cloudy
8:15 PM 46.4 °F 40.7 °F 33.8 °F 62% 30.06 in 10.0 mi West 12.7 mph 19.6 mph N/A   Mostly Cloudy
8:35 PM 44.6 °F 38.4 °F 32.0 °F 61% 30.07 in 10.0 mi WSW 12.7 mph 19.6 mph N/A   Mostly Cloudy
8:55 PM 44.6 °F 39.2 °F 32.0 °F 61% 30.09 in 10.0 mi West 10.4 mph - N/A   Mostly Cloudy
9:15 PM 42.8 °F 37.0 °F 33.8 °F 70% 30.09 in 10.0 mi West 10.4 mph - N/A   Overcast
9:35 PM 44.6 °F 39.2 °F 33.8 °F 66% 30.11 in 10.0 mi West 10.4 mph 19.6 mph N/A   Overcast
9:55 PM 42.8 °F 38.6 °F 33.8 °F 70% 30.12 in 10.0 mi West 6.9 mph 12.7 mph N/A   Drizzle
10:15 PM 42.8 °F 40.1 °F 35.6 °F 76% 30.13 in 10.0 mi SSW 4.6 mph - N/A   Overcast
10:35 PM 41.0 °F 37.1 °F 35.6 °F 81% 30.13 in 10.0 mi South 5.8 mph - N/A   Mostly Cloudy
10:55 PM 39.2 °F 35.9 °F 35.6 °F 87% 30.14 in 10.0 mi SSE 4.6 mph - N/A   Scattered Clouds
11:15 PM 39.2 °F 35.9 °F 35.6 °F 87% 30.15 in 10.0 mi South 4.6 mph - N/A   Mostly Cloudy
11:35 PM 41.0 °F 38.0 °F 33.8 °F 76% 30.16 in 10.0 mi SSW 4.6 mph - N/A   Mostly Cloudy